DELTA 1 DEB, 40758

Orbit data source: Space-Track

DELTA 1 DEB, 40758 is space debris in SSO originally from a launch on Thu, 29 Jul 1976 UTC launched from the Air Force Western Test Range (AFWTR). Debris objects in space refer to the collection of defunct objects orbiting the Earth. Examples of debris include non-operational satellites, rocket bodies, and fragments generated from explosions, collisions, or faulty payload assembly.

Loading next visibility...
Identifier
40758, 1976-077GB
Orbit
SSO
Country
Flag of USUS
Related business
Manufacturer
Unknown
Mission
Spacecraft
Bus & Motor
Unknown
Mass
Unknown
Launch date (UTC)
1976-07-29 (50 years ago)
Launch vehicle
Unknown
Launch site
Air Force Western Test Range (AFWTR)
Object type
Payload
Rocket body
Debris
Shape & HBR
Unknown shape, 0.1 m
Radar Cross Section
Medium (>0.1 m² and <1 m²)

Expand to show TLE details & history
Last TLE update: 1 week ago

TLE from 1 week ago
0 DELTA 1 DEB
1 40758U 76077GB  26249.13802468 -.00000012  00000-0  30639-3 0  9994
2 40758 102.5337 220.1987 0089214 322.8809  98.5021 12.25503641572022
Epoch: 2026-09-06T03:18Z
TLE epoch observation values (Epoch: 2026-09-06T03:18:45.332Z)
Latitude
59.97601°
Longitude
162.76383°
Altitude
1,589.734 km
Speed
7.075 km/s
True Right ascension
13h 10m 45s
True Declination
59° 50' 33"
Sunlit
Object was in daylight at epoch
Visualization orbit readout
Latitude
Unknown
Longitude
Unknown
Altitude
Unknown
Speed
Unknown
Apparent Right ascension
Unknown
Apparent Declination
Unknown
Sunlit
N/A
Visualization observer readout
Local Sidereal Time
15:41:29
Azimuth
Unknown
Elevation
Unknown
Doppler factor
Unknown
Orbital elements
Apogee altitude
1,637.161 km
Perigee altitude
1,495.41 km
Semi-major axis
7,944.422 km
Eccentricity
0.00892
Inclination
102.5337°
RAAN
220.1987°
Arg. of periapsis
322.8809°
True anomaly
99.51147°
Mean anomaly
98.5021°
Eccentric anomaly
99.00696°
Mean motion
3.06514 °/min
Orbital period
117.45 mins
BSTAR
0.00030639
Loading maneuver chart data...
Computing Atmospheric mass density...
Loading historical data...
Loading historical data...
Loading historical data...
Loading historical data...
Loading historical data...
Loading historical data...
Loading historical data...

Documentation

Showing up to 5 results
|